Weather in Poselok Sadovoye

Russia / Kaliningrad Oblast     54°28′38″N   21°55′18″E
temp.,
°C
wind,
m/s
gust,
m/s
humid.,
%
clouds,
%
prec.,
mm/h
press.,
hPa
HPBL,
m
1 august, sun
sun123:00+17s118884 0.1 100514
02:00+15sw379537 0.1 1005137
05:00+14sw4118841 0.0 1006202
08:00+17wsw51076100 0.0 1007501
11:00+22wsw5754100 0.0 10071063
14:00+23sw4651100 0.0 10071560
17:00+19s6869100 0.1 1007523
20:00+15sw2496100 1.3 1006121
2 august, mon
mon223:00+15s2294100 0.2 100651
02:00+14w2393100 0.2 100569
05:00+14w2293100 0.1 100456
08:00+15wsw2396100 0.6 1005142
11:00+19w3480100 1.1 1005463
14:00+19w6882100 4.4 1006951
17:00+19wnw5880100 2.9 10071233
20:00+15w3586100 3.2 100891
3 august, tue
tue323:00+13sw36915 0.0 1009100
02:00+12sw512910 0.0 1009297
05:00+11sw512915 0.0 1010300
08:00+15wsw58809 0.1 1011429
11:00+20w57525 0.0 10121755
14:00+22wnw56449 0.0 10122100
17:00+21nnw345071 0.0 10121093
20:00+16ssw117378 0.2 101311
4 august, wed
wed423:00+14s2284100 0.0 101438
02:00+14ssw3589100 0.0 1014118
05:00+13sw2290100 0.0 101426
08:00+16sw2578100 0.0 1015235
11:00+17ssw3479100 0.3 1015500
14:00+15sse2592100 1.1 1015260
17:00+18sse2381100 0.4 1015756
20:00+16e2289100 0.6 101429
5 august, thu
thu523:00+14e3597100 0.0 101496
02:00+13e3496100 0.0 101490
05:00+12e239635 0.0 101341
08:00+17e338552 0.0 1013268
11:00+20e2375100 1.0 1012313
14:00+22ese3462100 2.3 1011920
17:00+16ssw3696100 2.6 1011245
20:00+16sse1197100 3.1 100919